Location: Montbazon
(47.2835°N, 0.6999°E)
Time: 06:14:26
(UTC+00:00)

PAYLOAD A - Pass Details

Date: 08 November 2025
Orbit: 690 x 829 km, 98.6° (Epoch: 16 December)

Event Time Altitude Azimuth Distance (km) Brightness Sun altitude
Rises 04:08:52 0° 15° (NNE) 3,382 7.6 -27.7°
Reaches altitude 10° 04:11:15 10° 17° (NNE) 2,441 6.8 -27.3°
Maximum altitude 04:16:41 75° 103° (ESE) 849 4.2 -26.4°
Enters shadow 04:20:37 19° 187° (S) 1,856 5.9 -25.7°
